| time (UTC) | temp F | wind direction | speed MPH | gust MPH | rain 1hr in | rain 24hr in | rain mn in | humidity % | barometer mb |
| 20260901081202 | 65 | 55 | 0.0 | 0.0 | 0.00 | 0.00 | 0.00 | 95 | 1014.3 |
| 20260901080702 | 65 | 55 | 0.0 | 0.0 | 0.00 | 0.00 | 0.00 | 95 | 1014.2 |
| 20260901075704 | 65 | 55 | 0.0 | 0.0 | 0.00 | 0.00 | 0.00 | 95 | 1014.2 |
| 20260901075203 | 65 | 55 | 0.0 | 0.0 | 0.00 | 0.00 | 0.00 | 95 | 1014.2 |
| 20260901074702 | 65 | 55 | 0.0 | 0.0 | 0.00 | 0.00 | 0.00 | 94 | 1014.3 |
| 20260901074202 | 65 | 55 | 0.0 | 0.0 | 0.00 | 0.00 | 0.00 | 94 | 1014.5 |
| 20260901073202 | 65 | 55 | 0.0 | 0.0 | 0.00 | 0.00 | 0.00 | 94 | 1014.3 |
| 20260901072701 | 65 | 55 | 0.0 | 0.0 | 0.00 | 0.00 | 0.00 | 93 | 1014.5 |
| 20260901072202 | 65 | 55 | 0.0 | 0.0 | 0.00 | 0.00 | 0.00 | 94 | 1014.5 |
| 20260901071702 | 65 | 55 | 0.0 | 0.0 | 0.00 | 0.00 | 0.00 | 94 | 1014.5 |
| 20260901071202 | 65 | 55 | 0.0 | 0.0 | 0.00 | 0.00 | 0.00 | 94 | 1014.5 |
| 20260901070202 | 66 | 55 | 0.0 | 1.0 | 0.00 | 0.00 | 0.00 | 93 | 1014.6 |
| 20260901065702 | 66 | 100 | 0.0 | 0.0 | 0.00 | 0.00 | 0.00 | 93 | 1014.5 |
| 20260901065202 | 66 | 102 | 0.0 | 2.0 | 0.00 | 0.00 | 0.00 | 93 | 1014.3 |
| 20260901064702 | 66 | 102 | 0.0 | 2.0 | 0.00 | 0.00 | 0.00 | 93 | 1014.5 |
| 20260901064202 | 66 | 102 | 0.0 | 2.0 | 0.00 | 0.00 | 0.00 | 93 | 1014.5 |
| 20260901063202 | 66 | 102 | 0.0 | 0.0 | 0.00 | 0.00 | 0.00 | 93 | 1014.6 |
| 20260901062201 | 67 | 102 | 0.0 | 0.0 | 0.00 | 0.00 | 0.00 | 93 | 1014.5 |
| 20260901061201 | 67 | 102 | 0.0 | 0.0 | 0.00 | 0.00 | 0.00 | 92 | 1014.6 |
| 20260901060701 | 67 | 102 | 0.0 | 0.0 | 0.00 | 0.00 | 0.00 | 92 | 1014.6 |
| 20260901060202 | 67 | 102 | 0.0 | 0.0 | 0.00 | 0.00 | 0.00 | 91 | 1014.7 |
| 20260901055702 | 67 | 102 | 0.0 | 0.0 | 0.00 | 0.00 | 0.00 | 91 | 1014.6 |
| 20260901055202 | 67 | 102 | 0.0 | 0.0 | 0.00 | 0.00 | 0.00 | 91 | 1014.6 |
| 20260901054703 | 67 | 102 | 0.0 | 0.0 | 0.00 | 0.00 | 0.00 | 91 | 1014.5 |
| 20260901054202 | 67 | 102 | 0.0 | 1.0 | 0.00 | 0.00 | 0.00 | 90 | 1014.6 |
| 20260901053702 | 67 | 102 | 0.0 | 1.0 | 0.00 | 0.00 | 0.00 | 90 | 1014.6 |
| 20260901053202 | 67 | 76 | 0.0 | 0.0 | 0.00 | 0.00 | 0.00 | 90 | 1014.5 |
| 20260901052703 | 67 | 76 | 0.0 | 0.0 | 0.00 | 0.00 | 0.00 | 90 | 1014.5 |
| 20260901052202 | 68 | 80 | 0.0 | 0.0 | 0.00 | 0.00 | 0.00 | 90 | 1014.3 |
| 20260901051703 | 68 | 80 | 0.0 | 0.0 | 0.00 | 0.00 | 0.00 | 89 | 1014.5 |
| 20260901051202 | 68 | 80 | 0.0 | 0.0 | 0.00 | 0.00 | 0.00 | 89 | 1014.3 |
| 20260901050702 | 68 | 80 | 0.0 | 0.0 | 0.00 | 0.00 | 0.00 | 89 | 1014.3 |
| 20260901045702 | 69 | 80 | 0.0 | 1.0 | 0.00 | 0.00 | 0.00 | 88 | 1014.3 |
| 20260901044702 | 69 | 80 | 1.0 | 3.0 | 0.00 | 0.00 | 0.00 | 87 | 1014.3 |
| 20260901044202 | 69 | 80 | 0.0 | 3.0 | 0.00 | 0.00 | 0.00 | 86 | 1014.2 |
| 20260901043703 | 69 | 195 | 0.0 | 2.0 | 0.00 | 0.00 | 0.00 | 87 | 1014.3 |
| 20260901043202 | 69 | 203 | 0.0 | 1.0 | 0.00 | 0.00 | 0.00 | 87 | 1014.3 |
| 20260901041702 | 70 | 203 | 0.0 | 0.0 | 0.00 | 0.00 | 0.00 | 86 | 1014.1 |
| 20260901040202 | 70 | 203 | 0.0 | 0.0 | 0.00 | 0.00 | 0.00 | 86 | 1014.1 |
| 20260901035702 | 70 | 203 | 0.0 | 0.0 | 0.00 | 0.00 | 0.00 | 86 | 1014.0 |
| 20260901035202 | 70 | 203 | 0.0 | 1.0 | 0.00 | 0.00 | 0.00 | 86 | 1014.0 |
| 20260901034702 | 70 | 203 | 0.0 | 1.0 | 0.00 | 0.00 | 0.00 | 85 | 1014.0 |
| 20260901034201 | 70 | 203 | 0.0 | 1.0 | 0.00 | 0.00 | 0.00 | 85 | 1014.1 |
| 20260901033702 | 70 | 203 | 0.0 | 2.0 | 0.00 | 0.00 | 0.00 | 85 | 1014.0 |
| 20260901033202 | 71 | 203 | 1.0 | 2.0 | 0.00 | 0.00 | 0.00 | 85 | 1014.0 |
| 20260901032703 | 71 | 159 | 0.0 | 2.0 | 0.00 | 0.00 | 0.00 | 84 | 1014.0 |
| 20260901032201 | 71 | 159 | 0.0 | 1.0 | 0.00 | 0.00 | 0.00 | 84 | 1014.0 |
| 20260901031702 | 72 | 159 | 0.0 | 1.0 | 0.00 | 0.00 | 0.00 | 83 | 1013.9 |
| 20260901030702 | 72 | 159 | 0.0 | 2.0 | 0.00 | 0.00 | 0.00 | 84 | 1013.7 |
| 20260901030202 | 72 | 159 | 1.0 | 2.0 | 0.00 | 0.00 | 0.00 | 84 | 1013.8 |
| 20260901025702 | 72 | 159 | 1.0 | 3.0 | 0.00 | 0.00 | 0.00 | 83 | 1013.7 |
| 20260901025202 | 73 | 159 | 0.0 | 3.0 | 0.00 | 0.00 | 0.00 | 83 | 1013.6 |
| 20260901024203 | 73 | 159 | 1.0 | 3.0 | 0.00 | 0.00 | 0.00 | 82 | 1013.7 |
| 20260901023702 | 73 | 175 | 2.0 | 3.0 | 0.00 | 0.00 | 0.00 | 82 | 1013.7 |
| 20260901023202 | 73 | 175 | 0.0 | 2.0 | 0.00 | 0.00 | 0.00 | 81 | 1013.6 |
| 20260901022702 | 73 | 175 | 1.0 | 2.0 | 0.00 | 0.00 | 0.00 | 81 | 1013.6 |
| 20260901022202 | 73 | 175 | 0.0 | 2.0 | 0.00 | 0.00 | 0.00 | 82 | 1013.6 |
| 20260901021703 | 74 | 175 | 0.0 | 2.0 | 0.00 | 0.00 | 0.00 | 82 | 1013.5 |
| 20260901021201 | 74 | 175 | 1.0 | 1.0 | 0.00 | 0.00 | 0.00 | 81 | 1013.5 |
| 20260901020702 | 74 | 175 | 0.0 | 2.0 | 0.00 | 0.00 | 0.00 | 80 | 1013.4 |
| 20260901020202 | 75 | 175 | 1.0 | 2.0 | 0.00 | 0.00 | 0.00 | 79 | 1013.3 |
| 20260901015702 | 75 | 175 | 0.0 | 2.0 | 0.00 | 0.00 | 0.00 | 79 | 1013.3 |
| 20260901015203 | 75 | 175 | 0.0 | 0.0 | 0.00 | 0.00 | 0.00 | 79 | 1013.2 |
| 20260901014702 | 76 | 175 | 0.0 | 2.0 | 0.00 | 0.00 | 0.00 | 78 | 1013.1 |
| 20260901014202 | 76 | 175 | 0.0 | 3.0 | 0.00 | 0.00 | 0.00 | 79 | 1013.1 |
| 20260901013702 | 76 | 175 | 1.0 | 3.0 | 0.00 | 0.00 | 0.00 | 78 | 1013.0 |
| 20260901013202 | 76 | 188 | 1.0 | 3.0 | 0.00 | 0.00 | 0.00 | 78 | 1013.0 |
| 20260901012701 | 77 | 166 | 1.0 | 3.0 | 0.00 | 0.00 | 0.00 | 78 | 1012.9 |
| 20260901012202 | 77 | 166 | 1.0 | 3.0 | 0.00 | 0.00 | 0.00 | 78 | 1012.9 |
| 20260901011702 | 77 | 166 | 2.0 | 3.0 | 0.00 | 0.00 | 0.00 | 76 | 1012.9 |
| 20260901011203 | 78 | 166 | 2.0 | 2.0 | 0.00 | 0.00 | 0.00 | 76 | 1012.8 |
| 20260901010702 | 78 | 166 | 0.0 | 2.0 | 0.00 | 0.00 | 0.00 | 74 | 1012.8 |
| 20260901010202 | 79 | 166 | 1.0 | 2.0 | 0.00 | 0.00 | 0.00 | 75 | 1012.7 |
| 20260901005702 | 80 | 166 | 0.0 | 2.0 | 0.00 | 0.00 | 0.00 | 75 | 1012.7 |
| 20260901005202 | 80 | 166 | 0.0 | 3.0 | 0.00 | 0.00 | 0.00 | 72 | 1012.8 |
| 20260901004702 | 81 | 166 | 1.0 | 3.0 | 0.00 | 0.00 | 0.00 | 70 | 1012.7 |
| 20260901004203 | 82 | 166 | 1.0 | 2.0 | 0.00 | 0.00 | 0.00 | 68 | 1012.6 |
| 20260901003702 | 83 | 166 | 1.0 | 3.0 | 0.00 | 0.00 | 0.00 | 69 | 1012.6 |
| 20260901003202 | 83 | 166 | 2.0 | 3.0 | 0.00 | 0.00 | 0.00 | 67 | 1012.6 |
| 20260901002202 | 85 | 166 | 1.0 | 3.0 | 0.00 | 0.00 | 0.00 | 62 | 1012.6 |
| 20260901001702 | 87 | 166 | 1.0 | 4.0 | 0.00 | 0.00 | 0.00 | 58 | 1012.5 |
| 20260901001202 | 88 | 179 | 2.0 | 4.0 | 0.00 | 0.00 | 0.00 | 58 | 1012.5 |
| 20260901000704 | 90 | 176 | 2.0 | 5.0 | 0.00 | 0.00 | 0.00 | 55 | 1012.5 |
| 20260901000203 | 91 | 168 | 2.0 | 5.0 | 0.00 | 0.00 | 0.00 | 51 | 1012.5 |
| 20260831235702 | 92 | 171 | 2.0 | 5.0 | 0.00 | 0.00 | 0.00 | 54 | 1012.6 |
| 20260831235202 | 93 | 175 | 3.0 | 5.0 | 0.00 | 0.00 | 0.00 | 50 | 1012.7 |
| 20260831234702 | 93 | 250 | 3.0 | 9.0 | 0.00 | 0.00 | 0.00 | 48 | 1012.6 |
| 20260831234203 | 93 | 152 | 3.0 | 9.0 | 0.00 | 0.00 | 0.00 | 48 | 1012.6 |
| 20260831233703 | 94 | 182 | 3.0 | 7.0 | 0.00 | 0.00 | 0.00 | 49 | 1012.6 |
| 20260831233202 | 95 | 179 | 4.0 | 7.0 | 0.00 | 0.00 | 0.00 | 45 | 1012.6 |
| 20260831232702 | 95 | 180 | 3.0 | 7.0 | 0.00 | 0.00 | 0.00 | 45 | 1012.6 |
| 20260831232202 | 95 | 199 | 4.0 | 7.0 | 0.00 | 0.00 | 0.00 | 47 | 1012.6 |
| 20260831231702 | 95 | 195 | 3.0 | 6.0 | 0.00 | 0.00 | 0.00 | 48 | 1012.6 |
| 20260831231203 | 95 | 189 | 2.0 | 6.0 | 0.00 | 0.00 | 0.00 | 51 | 1012.6 |
| 20260831230702 | 95 | 217 | 4.0 | 9.0 | 0.00 | 0.00 | 0.00 | 46 | 1012.5 |
| 20260831230203 | 96 | 189 | 2.0 | 10.0 | 0.00 | 0.00 | 0.00 | 46 | 1012.5 |
| 20260831225702 | 96 | 216 | 4.0 | 10.0 | 0.00 | 0.00 | 0.00 | 43 | 1012.5 |
| 20260831225202 | 96 | 235 | 3.0 | 12.0 | 0.00 | 0.00 | 0.00 | 44 | 1012.5 |
| 20260831224702 | 97 | 212 | 3.0 | 12.0 | 0.00 | 0.00 | 0.00 | 43 | 1012.5 |
| 20260831224202 | 97 | 193 | 4.0 | 13.0 | 0.00 | 0.00 | 0.00 | 42 | 1012.5 |
| 20260831223202 | 98 | 196 | 5.0 | 16.0 | 0.00 | 0.00 | 0.00 | 40 | 1012.6 |
| 20260831222702 | 98 | 200 | 7.0 | 16.0 | 0.00 | 0.00 | 0.00 | 39 | 1012.6 |
| 20260831222202 | 98 | 166 | 6.0 | 13.0 | 0.00 | 0.00 | 0.00 | 40 | 1012.6 |
| 20260831221702 | 98 | 245 | 4.0 | 14.0 | 0.00 | 0.00 | 0.00 | 39 | 1012.6 |
| 20260831220702 | 99 | 230 | 4.0 | 14.0 | 0.00 | 0.00 | 0.00 | 41 | 1012.7 |
| 20260831220202 | 99 | 137 | 7.0 | 14.0 | 0.00 | 0.00 | 0.00 | 39 | 1012.7 |
| 20260831215702 | 98 | 172 | 8.0 | 18.0 | 0.00 | 0.00 | 0.00 | 38 | 1012.6 |
| 20260831215202 | 98 | 188 | 6.0 | 18.0 | 0.00 | 0.00 | 0.00 | 39 | 1012.7 |
| 20260831214702 | 98 | 186 | 9.0 | 16.0 | 0.00 | 0.00 | 0.00 | 39 | 1012.7 |
| 20260831214203 | 98 | 235 | 7.0 | 16.0 | 0.00 | 0.00 | 0.00 | 40 | 1012.7 |
| 20260831212702 | 98 | 204 | 6.0 | 16.0 | 0.00 | 0.00 | 0.00 | 42 | 1012.7 |
| 20260831212202 | 99 | 206 | 7.0 | 14.0 | 0.00 | 0.00 | 0.00 | 41 | 1012.7 |
| 20260831211202 | 99 | 202 | 5.0 | 18.0 | 0.00 | 0.00 | 0.00 | 40 | 1012.7 |
| 20260831210202 | 99 | 168 | 8.0 | 17.0 | 0.00 | 0.00 | 0.00 | 39 | 1012.7 |
| 20260831205702 | 100 | 228 | 9.0 | 17.0 | 0.00 | 0.00 | 0.00 | 39 | 1012.7 |
| 20260831205202 | 100 | 196 | 9.0 | 16.0 | 0.00 | 0.00 | 0.00 | 38 | 1012.8 |
| 20260831204702 | 100 | 161 | 8.0 | 18.0 | 0.00 | 0.00 | 0.00 | 39 | 1012.8 |
| 20260831204203 | 100 | 171 | 8.0 | 18.0 | 0.00 | 0.00 | 0.00 | 40 | 1012.9 |
| 20260831203702 | 100 | 179 | 8.0 | 19.0 | 0.00 | 0.00 | 0.00 | 39 | 1012.9 |
| 20260831203202 | 101 | 204 | 10.0 | 19.0 | 0.00 | 0.00 | 0.00 | 39 | 1013.0 |
| 20260831202702 | 101 | 185 | 6.0 | 17.0 | 0.00 | 0.00 | 0.00 | 39 | 1012.9 |
| 20260831201702 | 100 | 131 | 8.0 | 19.0 | 0.00 | 0.00 | 0.00 | 39 | 1012.9 |
| 20260831201202 | 100 | 186 | 8.0 | 19.0 | 0.00 | 0.00 | 0.00 | 40 | 1013.1 |
| 20260831200702 | 100 | 158 | 6.0 | 17.0 | 0.00 | 0.00 | 0.00 | 40 | 1013.0 |
| 20260831200202 | 99 | 244 | 8.0 | 18.0 | 0.00 | 0.00 | 0.00 | 39 | 1013.1 |
| 20260831195702 | 99 | 213 | 10.0 | 18.0 | 0.00 | 0.00 | 0.00 | 40 | 1013.3 |
| 20260831195202 | 99 | 295 | 7.0 | 18.0 | 0.00 | 0.00 | 0.00 | 39 | 1013.2 |
| 20260831194703 | 100 | 224 | 7.0 | 18.0 | 0.00 | 0.00 | 0.00 | 40 | 1013.2 |
| 20260831193701 | 100 | 223 | 5.0 | 18.0 | 0.00 | 0.00 | 0.00 | 39 | 1013.3 |
| 20260831192203 | 100 | 197 | 8.0 | 18.0 | 0.00 | 0.00 | 0.00 | 39 | 1013.4 |
| 20260831191702 | 99 | 207 | 8.0 | 17.0 | 0.00 | 0.00 | 0.00 | 41 | 1013.4 |
| 20260831191201 | 99 | 216 | 7.0 | 17.0 | 0.00 | 0.00 | 0.00 | 39 | 1013.4 |
| 20260831190701 | 100 | 192 | 6.0 | 17.0 | 0.00 | 0.00 | 0.00 | 41 | 1013.4 |
| 20260831190202 | 99 | 188 | 9.0 | 17.0 | 0.00 | 0.00 | 0.00 | 40 | 1013.5 |
| 20260831185659 | 99 | 193 | 8.0 | 17.0 | 0.00 | 0.00 | 0.00 | 41 | 1013.5 |
| 20260831184659 | 99 | 240 | 9.0 | 18.0 | 0.00 | 0.00 | 0.00 | 41 | 1013.5 |
| 20260831184156 | 99 | 206 | 6.0 | 18.0 | 0.00 | 0.00 | 0.00 | 42 | 1013.5 |
| 20260831183657 | 99 | 199 | 8.0 | 16.0 | 0.00 | 0.00 | 0.00 | 42 | 1013.5 |
| 20260831183158 | 99 | 244 | 6.0 | 17.0 | 0.00 | 0.00 | 0.00 | 43 | 1013.5 |
| 20260831182654 | 98 | 137 | 7.0 | 17.0 | 0.00 | 0.00 | 0.00 | 42 | 1013.7 |
| 20260831180653 | 98 | 200 | 6.0 | 18.0 | 0.00 | 0.00 | 0.00 | 45 | 1013.8 |
| 20260831180153 | 98 | 197 | 9.0 | 15.0 | 0.00 | 0.00 | 0.00 | 44 | 1013.9 |
| 20260831175650 | 97 | 281 | 6.0 | 15.0 | 0.00 | 0.00 | 0.00 | 43 | 1014.0 |
| 20260831175150 | 97 | 219 | 6.0 | 15.0 | 0.00 | 0.00 | 0.00 | 44 | 1014.1 |
| 20260831174652 | 97 | 231 | 7.0 | 15.0 | 0.00 | 0.00 | 0.00 | 44 | 1014.2 |
| 20260831174149 | 97 | 244 | 8.0 | 15.0 | 0.00 | 0.00 | 0.00 | 44 | 1014.2 |
| 20260831173649 | 96 | 213 | 8.0 | 15.0 | 0.00 | 0.00 | 0.00 | 45 | 1014.3 |
| 20260831173149 | 96 | 202 | 8.0 | 15.0 | 0.00 | 0.00 | 0.00 | 45 | 1014.5 |
| 20260831172647 | 95 | 185 | 7.0 | 16.0 | 0.00 | 0.00 | 0.00 | 48 | 1014.6 |
| 20260831172147 | 95 | 235 | 8.0 | 19.0 | 0.00 | 0.00 | 0.00 | 48 | 1014.6 |
| 20260831171647 | 95 | 224 | 6.0 | 19.0 | 0.00 | 0.00 | 0.00 | 49 | 1014.6 |
| 20260831171144 | 95 | 178 | 8.0 | 19.0 | 0.00 | 0.00 | 0.00 | 47 | 1014.6 |
| 20260831170645 | 95 | 226 | 6.0 | 14.0 | 0.00 | 0.00 | 0.00 | 50 | 1014.6 |
| 20260831170143 | 95 | 250 | 5.0 | 14.0 | 0.00 | 0.00 | 0.00 | 50 | 1014.7 |
| 20260831165643 | 94 | 226 | 7.0 | 14.0 | 0.00 | 0.00 | 0.00 | 50 | 1014.7 |
| 20260831165144 | 94 | 231 | 5.0 | 14.0 | 0.00 | 0.00 | 0.00 | 50 | 1014.7 |
| 20260831164643 | 93 | 199 | 8.0 | 14.0 | 0.00 | 0.00 | 0.00 | 51 | 1014.8 |
| 20260831164141 | 93 | 209 | 7.0 | 13.0 | 0.00 | 0.00 | 0.00 | 51 | 1014.8 |
| 20260831163642 | 93 | 199 | 6.0 | 12.0 | 0.00 | 0.00 | 0.00 | 50 | 1014.9 |
| 20260831163141 | 92 | 212 | 5.0 | 12.0 | 0.00 | 0.00 | 0.00 | 53 | 1014.9 |
| 20260831162639 | 91 | 235 | 4.0 | 13.0 | 0.00 | 0.00 | 0.00 | 51 | 1014.9 |
| 20260831162139 | 91 | 248 | 6.0 | 13.0 | 0.00 | 0.00 | 0.00 | 52 | 1014.9 |
| 20260831161137 | 89 | 259 | 4.0 | 11.0 | 0.00 | 0.00 | 0.00 | 56 | 1015.1 |
| 20260831160137 | 90 | 188 | 4.0 | 9.0 | 0.00 | 0.00 | 0.00 | 56 | 1015.1 |
| 20260831155635 | 89 | 210 | 5.0 | 11.0 | 0.00 | 0.00 | 0.00 | 54 | 1015.1 |
| 20260831155135 | 89 | 204 | 7.0 | 13.0 | 0.00 | 0.00 | 0.00 | 56 | 1015.2 |
| 20260831154635 | 89 | 145 | 5.0 | 13.0 | 0.00 | 0.00 | 0.00 | 56 | 1015.1 |
| 20260831154133 | 88 | 231 | 4.0 | 12.0 | 0.00 | 0.00 | 0.00 | 58 | 1015.0 |
| 20260831153633 | 88 | 251 | 3.0 | 12.0 | 0.00 | 0.00 | 0.00 | 59 | 1015.1 |
| 20260831153131 | 88 | 199 | 5.0 | 10.0 | 0.00 | 0.00 | 0.00 | 60 | 1015.0 |
| 20260831152131 | 87 | 243 | 5.0 | 12.0 | 0.00 | 0.00 | 0.00 | 60 | 1015.1 |
| 20260831151631 | 86 | 188 | 5.0 | 13.0 | 0.00 | 0.00 | 0.00 | 60 | 1015.0 |
| 20260831151132 | 86 | 203 | 6.0 | 13.0 | 0.00 | 0.00 | 0.00 | 60 | 1015.1 |
| 20260831150631 | 86 | 185 | 5.0 | 11.0 | 0.00 | 0.00 | 0.00 | 61 | 1015.1 |
| 20260831150131 | 85 | 199 | 4.0 | 11.0 | 0.00 | 0.00 | 0.00 | 62 | 1015.0 |
| 20260831145632 | 85 | 202 | 5.0 | 14.0 | 0.00 | 0.00 | 0.00 | 63 | 1014.9 |
| 20260831145132 | 84 | 204 | 7.0 | 14.0 | 0.00 | 0.00 | 0.00 | 64 | 1015.0 |
| 20260831144630 | 84 | 197 | 5.0 | 12.0 | 0.00 | 0.00 | 0.00 | 63 | 1014.9 |
| 20260831144131 | 83 | 210 | 5.0 | 12.0 | 0.00 | 0.00 | 0.00 | 63 | 1015.0 |
| 20260831143131 | 82 | 230 | 6.0 | 14.0 | 0.00 | 0.00 | 0.00 | 65 | 1015.0 |
| 20260831142631 | 82 | 228 | 5.0 | 9.0 | 0.00 | 0.00 | 0.00 | 67 | 1015.1 |
| 20260831142131 | 81 | 186 | 3.0 | 11.0 | 0.00 | 0.00 | 0.00 | 69 | 1015.1 |
| 20260831141630 | 81 | 200 | 5.0 | 11.0 | 0.00 | 0.00 | 0.00 | 67 | 1015.2 |
| 20260831140631 | 80 | 182 | 3.0 | 9.0 | 0.00 | 0.00 | 0.00 | 69 | 1015.2 |
| 20260831140131 | 79 | 230 | 4.0 | 12.0 | 0.00 | 0.00 | 0.00 | 70 | 1015.2 |
| 20260831135631 | 79 | 235 | 4.0 | 12.0 | 0.00 | 0.00 | 0.00 | 70 | 1015.2 |
| 20260831135132 | 78 | 185 | 3.0 | 10.0 | 0.00 | 0.00 | 0.00 | 70 | 1015.1 |
| 20260831134632 | 78 | 195 | 4.0 | 9.0 | 0.00 | 0.00 | 0.00 | 70 | 1015.2 |
| 20260831133631 | 77 | 182 | 3.0 | 9.0 | 0.00 | 0.00 | 0.00 | 72 | 1015.2 |
| 20260831133132 | 77 | 195 | 3.0 | 9.0 | 0.00 | 0.00 | 0.00 | 72 | 1015.3 |
| 20260831132632 | 77 | 189 | 4.0 | 9.0 | 0.00 | 0.00 | 0.00 | 72 | 1015.1 |
| 20260831132131 | 77 | 151 | 3.0 | 7.0 | 0.00 | 0.00 | 0.00 | 72 | 1015.1 |
| 20260831131631 | 77 | 209 | 3.0 | 7.0 | 0.00 | 0.00 | 0.00 | 72 | 1015.3 |
| 20260831131131 | 77 | 207 | 4.0 | 6.0 | 0.00 | 0.00 | 0.00 | 73 | 1015.2 |
| 20260831130631 | 76 | 245 | 2.0 | 5.0 | 0.00 | 0.00 | 0.00 | 74 | 1015.2 |
| 20260831130132 | 76 | 197 | 2.0 | 6.0 | 0.00 | 0.00 | 0.00 | 73 | 1015.1 |
| 20260831125632 | 76 | 248 | 3.0 | 9.0 | 0.00 | 0.00 | 0.00 | 75 | 1015.0 |
| 20260831125131 | 75 | 180 | 4.0 | 9.0 | 0.00 | 0.00 | 0.00 | 75 | 1014.9 |
| 20260831124131 | 75 | 161 | 4.0 | 6.0 | 0.00 | 0.00 | 0.00 | 75 | 1014.8 |
| 20260831123630 | 74 | 154 | 4.0 | 6.0 | 0.00 | 0.00 | 0.00 | 76 | 1014.6 |
| 20260831123129 | 73 | 183 | 4.0 | 7.0 | 0.00 | 0.00 | 0.00 | 77 | 1014.6 |
| 20260831122629 | 72 | 196 | 3.0 | 7.0 | 0.00 | 0.00 | 0.00 | 80 | 1014.3 |
| 20260831122130 | 70 | 166 | 3.0 | 5.0 | 0.00 | 0.00 | 0.00 | 82 | 1014.3 |
| 20260831121628 | 69 | 172 | 2.0 | 4.0 | 0.00 | 0.00 | 0.00 | 85 | 1014.2 |
| 20260831121128 | 69 | 172 | 1.0 | 4.0 | 0.00 | 0.00 | 0.00 | 84 | 1014.2 |
| 20260831120125 | 69 | 193 | 1.0 | 4.0 | 0.00 | 0.00 | 0.00 | 86 | 1014.2 |
| 20260831115626 | 68 | 179 | 2.0 | 4.0 | 0.00 | 0.00 | 0.00 | 86 | 1014.1 |
| 20260831115126 | 68 | 176 | 2.0 | 3.0 | 0.00 | 0.00 | 0.00 | 87 | 1014.0 |
| 20260831114623 | 68 | 200 | 2.0 | 3.0 | 0.00 | 0.00 | 0.00 | 86 | 1014.0 |
| 20260831113624 | 68 | 200 | 1.0 | 3.0 | 0.00 | 0.00 | 0.00 | 85 | 1014.0 |
| 20260831113124 | 69 | 200 | 1.0 | 3.0 | 0.00 | 0.00 | 0.00 | 84 | 1014.0 |
| 20260831112625 | 69 | 200 | 1.0 | 4.0 | 0.00 | 0.00 | 0.00 | 83 | 1014.2 |
| 20260831112122 | 70 | 200 | 0.0 | 4.0 | 0.00 | 0.00 | 0.00 | 82 | 1014.2 |
| 20260831111620 | 71 | 196 | 1.0 | 4.0 | 0.00 | 0.00 | 0.00 | 81 | 1014.0 |
| 20260831111120 | 71 | 196 | 1.0 | 4.0 | 0.00 | 0.00 | 0.00 | 80 | 1013.9 |
| 20260831110620 | 71 | 168 | 2.0 | 4.0 | 0.00 | 0.00 | 0.00 | 79 | 1013.9 |
| 20260831110118 | 70 | 161 | 2.0 | 4.0 | 0.00 | 0.00 | 0.00 | 81 | 1013.7 |
| 20260831105619 | 71 | 144 | 1.0 | 5.0 | 0.00 | 0.00 | 0.00 | 80 | 1013.8 |
| 20260831105118 | 71 | 176 | 3.0 | 5.0 | 0.00 | 0.00 | 0.00 | 79 | 1013.6 |
| 20260831104615 | 71 | 166 | 2.0 | 5.0 | 0.00 | 0.00 | 0.00 | 78 | 1013.6 |
| 20260831104116 | 72 | 172 | 3.0 | 5.0 | 0.00 | 0.00 | 0.00 | 77 | 1013.5 |
| 20260831103114 | 72 | 176 | 3.0 | 6.0 | 0.00 | 0.00 | 0.00 | 76 | 1013.4 |
| 20260831102114 | 71 | 196 | 2.0 | 6.0 | 0.00 | 0.00 | 0.00 | 78 | 1013.3 |
| 20260831101614 | 71 | 186 | 3.0 | 6.0 | 0.00 | 0.00 | 0.00 | 78 | 1013.3 |
| 20260831101115 | 71 | 173 | 2.0 | 5.0 | 0.00 | 0.00 | 0.00 | 80 | 1013.3 |
| 20260831100612 | 70 | 185 | 2.0 | 5.0 | 0.00 | 0.00 | 0.00 | 81 | 1013.2 |
| 20260831100110 | 70 | 172 | 2.0 | 3.0 | 0.00 | 0.00 | 0.00 | 82 | 1013.2 |
| 20260831095610 | 70 | 193 | 2.0 | 3.0 | 0.00 | 0.00 | 0.00 | 83 | 1013.2 |
| 20260831095110 | 70 | 195 | 2.0 | 3.0 | 0.00 | 0.00 | 0.00 | 82 | 1013.2 |
| 20260831094107 | 71 | 180 | 1.0 | 4.0 | 0.00 | 0.00 | 0.00 | 80 | 1013.1 |
| 20260831093608 | 71 | 176 | 2.0 | 3.0 | 0.00 | 0.00 | 0.00 | 80 | 1013.0 |
| 20260831093106 | 72 | 196 | 2.0 | 4.0 | 0.00 | 0.00 | 0.00 | 78 | 1013.0 |
| 20260831092604 | 73 | 185 | 2.0 | 4.0 | 0.00 | 0.00 | 0.00 | 76 | 1012.9 |
| 20260831092103 | 73 | 165 | 2.0 | 5.0 | 0.00 | 0.00 | 0.00 | 75 | 1012.7 |
| 20260831091603 | 73 | 166 | 3.0 | 5.0 | 0.00 | 0.00 | 0.00 | 75 | 1012.8 |
| 20260831091102 | 73 | 179 | 2.0 | 5.0 | 0.00 | 0.00 | 0.00 | 74 | 1012.8 |
| 20260831090601 | 74 | 147 | 3.0 | 5.0 | 0.00 | 0.00 | 0.00 | 74 | 1012.7 |
| 20260831085102 | 75 | 175 | 3.0 | 6.0 | 0.00 | 0.00 | 0.00 | 70 | 1012.8 |
| 20260831084602 | 75 | 164 | 3.0 | 6.0 | 0.00 | 0.00 | 0.00 | 69 | 1012.8 |
| 20260831084102 | 76 | 176 | 2.0 | 6.0 | 0.00 | 0.00 | 0.00 | 69 | 1012.7 |
| 20260831083602 | 76 | 183 | 3.0 | 6.0 | 0.00 | 0.00 | 0.00 | 69 | 1012.8 |
| 20260831082602 | 75 | 171 | 3.0 | 5.0 | 0.00 | 0.00 | 0.00 | 70 | 1012.8 |
| 20260831082102 | 75 | 125 | 3.0 | 5.0 | 0.00 | 0.00 | 0.00 | 70 | 1012.7 |
| 20260831081601 | 74 | 173 | 2.0 | 10.0 | 0.00 | 0.00 | 0.00 | 72 | 1012.6 |